Location: Montbazon
(47.2835°N, 0.6999°E)
Time: 16:53:16
(UTC+00:00)

Aureole 3 Rocket - Pass Details

Date: 08 November 2025
Orbit: 398 x 1690 km, 82.5° (Epoch: 12 December)

Event Time Altitude Azimuth Distance (km) Brightness Sun altitude
Rises 06:05:18 0° 348° (NNW) 2,728 6.1 -8.1°
Reaches altitude 10° 06:07:12 10° 346° (NNW) 1,952 5.3 -7.8°
Maximum altitude 06:11:28 72° 262° (W) 779 3.4 -7.1°
Drops below altitude 10° 06:17:23 10° 180° (S) 2,684 6.6 -6.2°
Sets 06:20:20 0° 178° (S) 3,850 7.4 -5.7°
